Location: Ch�ze
(42.9000°N, 0.0333°W)
Time: 19:34:30
(UTC+00:00)

COSMOS 2406 - Pass Details

Date: 24 January 2021
Orbit: 842 x 865 km, 71.0° (Epoch: 07 March)

Event Time Altitude Azimuth Distance (km) Brightness Sun altitude
Rises 18:23:11 0° 341° (NNW) 3,456 6.5 -14.7°
Reaches altitude 10° 18:25:50 10° 349° (N) 2,515 5.7 -15.2°
Maximum altitude 18:31:13 38° 57° (ENE) 1,289 3.7 -16.2°
Enters shadow 18:34:37 20° 114° (ESE) 1,880 4.5 -16.8°
